Location: Hope
(40.9110°N, 74.9680°W)
Time: 07:23:09
(UTC-05:00)

N. Korean satellite - Visible Passes

Search period start: 16 November 2018 00:00
Search period end: 26 November 2018 00:00
Orbit: 457 x 511 km, 97.2° (Epoch: 15 November)

Date Brightness Start Highest point End Pass type
(mag) Time Alt. Az. Time Alt. Az. Time Alt. Az.
16 Nov 9.9 18:32:33 10° SW 18:34:46 15° W 18:36:58 10° NW visible
17 Nov 8.1 05:58:01 10° NNE 06:01:17 39° E 06:04:31 10° S visible
17 Nov 8.7 18:06:54 10° SSW 18:10:08 30° W 18:13:20 10° NW visible
18 Nov 9.6 05:34:09 10° NE 05:36:40 19° E 05:39:10 10° SE visible
18 Nov 7.0 17:41:59 10° S 17:45:35 65° W 17:49:08 10° NNW visible
19 Nov 6.6 17:17:34 10° SSE 17:21:07 56° ENE 17:24:36 10° N visible
20 Nov 6.6 06:17:47 10° NNE 06:21:13 78° ESE 06:24:39 10° S visible
20 Nov 9.7 18:27:45 10° SW 18:30:10 17° W 18:32:33 10° NW visible
21 Nov 8.4 05:53:29 10° NNE 05:56:40 34° E 05:59:50 10° SSE visible
21 Nov 8.4 18:02:15 10° SSW 18:05:32 34° W 18:08:47 10° NNW visible
22 Nov 9.7 05:29:43 10° NE 05:32:02 17° E 05:34:20 10° SE visible
22 Nov 6.7 17:37:25 10° S 17:40:59 75° WSW 17:44:31 10° NNW visible
23 Nov 6.7 17:13:04 10° SSE 17:16:30 49° ENE 17:19:55 10° N visible
24 Nov 6.9 06:13:08 10° NNE 06:16:34 68° E 06:20:01 10° S visible
24 Nov 9.5 18:22:56 10° SW 18:25:31 19° W 18:28:05 10° NW visible
25 Nov 8.6 05:48:55 10° NNE 05:51:59 30° E 05:55:05 10° SSE visible
25 Nov 8.1 17:57:33 10° SSW 18:00:53 38° W 18:04:12 10° NNW visible
